TimeMST,TemperatureF,Dew PointF,Humidity,Sea Level PressureIn,VisibilityMPH,Wind Direction,Wind SpeedMPH,Gust SpeedMPH,PrecipitationIn,Events,Conditions,WindDirDegrees,DateUTC
12:53 AM,46.9,12.0,24,29.51,10.0,South,8.1,-,N/A,,Clear,190,2013-02-20 07:53:00
1:53 AM,46.0,17.1,31,29.49,10.0,South,11.5,-,N/A,,Clear,180,2013-02-20 08:53:00
2:53 AM,44.1,17.1,34,29.48,10.0,SSE,9.2,-,N/A,,Clear,160,2013-02-20 09:53:00
3:53 AM,43.0,16.0,34,29.46,10.0,SSE,9.2,-,N/A,,Overcast,150,2013-02-20 10:53:00
4:53 AM,44.6,17.6,34,29.53,10.0,SSW,5.8,-,N/A,,Overcast,200,2013-02-20 11:53:00
5:53 AM,43.0,24.1,47,29.47,10.0,SSW,6.9,-,N/A,,Overcast,200,2013-02-20 12:53:00
6:53 AM,43.0,24.1,47,29.49,10.0,SSW,5.8,-,N/A,,Overcast,210,2013-02-20 13:53:00
7:53 AM,39.9,27.0,60,29.52,10.0,South,13.8,18.4,N/A,,Overcast,180,2013-02-20 14:53:00
8:53 AM,41.0,26.1,55,29.53,10.0,Calm,Calm,-,N/A,,Overcast,0,2013-02-20 15:53:00
9:53 AM,44.1,21.0,40,29.54,10.0,Variable,4.6,-,N/A,,Overcast,0,2013-02-20 16:53:00
10:53 AM,42.1,24.1,49,29.56,10.0,Variable,3.5,-,N/A,,Overcast,0,2013-02-20 17:53:00
11:53 AM,43.0,21.9,43,29.56,10.0,Variable,3.5,-,N/A,,Overcast,0,2013-02-20 18:53:00
12:53 PM,43.0,25.0,49,29.55,10.0,WSW,6.9,-,N/A,,Overcast,250,2013-02-20 19:53:00
1:53 PM,44.1,27.0,51,29.52,10.0,North,9.2,-,N/A,,Clear,350,2013-02-20 20:53:00
2:53 PM,45.0,25.0,46,29.52,10.0,East,5.8,-,N/A,,Partly Cloudy,100,2013-02-20 21:53:00
3:53 PM,46.0,24.1,42,29.52,10.0,Calm,Calm,-,N/A,,Clear,0,2013-02-20 22:53:00
4:53 PM,46.9,24.1,41,29.51,10.0,Variable,4.6,-,N/A,,Clear,0,2013-02-20 23:53:00
5:53 PM,44.1,24.1,45,29.53,10.0,South,3.5,-,N/A,,Clear,170,2013-02-21 00:53:00
6:53 PM,43.0,24.1,47,29.57,10.0,Calm,Calm,-,N/A,,Clear,0,2013-02-21 01:53:00
7:53 PM,42.1,23.0,47,29.61,10.0,West,5.8,-,N/A,,Clear,280,2013-02-21 02:53:00
8:53 PM,41.0,19.9,43,29.62,10.0,West,8.1,-,N/A,,Partly Cloudy,260,2013-02-21 03:53:00
9:53 PM,41.0,25.0,53,29.64,10.0,WNW,5.8,-,N/A,,Mostly Cloudy,300,2013-02-21 04:53:00
10:53 PM,41.0,26.1,55,29.66,10.0,West,4.6,-,N/A,,Overcast,260,2013-02-21 05:53:00